Location: Basses Si�yes
(44.0835°N, 6.2037°E)
Time: 07:36:37
(UTC+00:00)

USA 116 - Pass Details

Date: 27 February 2020
Orbit: 405 x 834 km, 97.9° (Epoch: 18 November)

Event Time Altitude Azimuth Distance (km) Brightness Sun altitude
Rises 17:51:36 0° 17° (NNE) 2,793 7.1 -6.4°
Reaches altitude 10° 17:53:41 10° 22° (NNE) 1,952 6.3 -6.8°
Maximum altitude 17:57:54 57° 101° (E) 771 4.1 -7.6°
Drops below altitude 10° 18:02:36 10° 180° (S) 2,177 6.8 -8.4°
Sets 18:05:01 0° 185° (S) 3,148 7.7 -8.8°
